STARLINK-34412, 66132

Orbit data source: Space-Track

STARLINK-34412, 66132 is a payload satellite owned by SpaceX/Seattle (US) in LEO that was launched on Wed, 22 Oct 2025 UTC via an FALCON 9 launch vehicle from the Air Force Western Test Range (AFWTR). Payload-class satellites include a variety of spacecraft equipped with specific instruments for various scientific and technological missions. These include communications satellites like Starlink; space stations such as the ISS; scientific satellites like the Hubble; Earth observation satellites from companies like Planet Labs, Umbra, and HawkEye 360; GPS; miniature CubeSats for education and research; and military/defense satellites.

Loading next visibility...
Identifier
66132, 2025-237U
Orbit
LEO
Country
Flag of USUS
Related business
Manufacturer
SpaceX/Seattle
Mission
Operational Commercial Communications
Bus & Motor
STARLINK V2MO, Unknown motor
Mass
575 kg wet, ~530 kg dry
Launch date (UTC)
2025-10-22 (4 months ago)
Launch vehicle
FALCON 9
Launch site
Air Force Western Test Range (AFWTR)
Object type
Payload
Rocket body
Debris
Shape & HBR
Box + 2 Pan, 17.7 m
Radar Cross Section
36.964 m²

Expand to show TLE details & history
Last TLE update: 21 hours ago

TLE from 21 hours ago
0 STARLINK-34412
1 66132U 25237U   26061.32273303  .00029846  00000-0  10158-2 0  9991
2 66132  53.1581  73.7703 0001212  79.8373 280.2764 15.30200335 21399
Epoch: 2026-03-02T07:44Z
TLE epoch observation values (Epoch: 2026-03-02T07:44:44.133Z)
Latitude
-0.00007°
Longitude
157.46856°
Altitude
475.965 km
Speed
7.629 km/s
True Right ascension
04h 55m 04s
True Declination
0° 00' 00"
Sunlit
Object was in daylight at epoch
Visualization orbit readout
Latitude
Unknown
Longitude
Unknown
Altitude
Unknown
Speed
Unknown
Apparent Right ascension
Unknown
Apparent Declination
Unknown
Sunlit
N/A
Visualization observer readout
Local Sidereal Time
08:42:30
Azimuth
Unknown
Elevation
Unknown
Doppler factor
Unknown
Orbital elements
Apogee altitude
476.301 km
Perigee altitude
474.64 km
Semi-major axis
6,853.608 km
Eccentricity
0.00012
Inclination
53.1581°
RAAN
73.7703°
Arg. of periapsis
79.8373°
True anomaly
280.26273°
Mean anomaly
280.2764°
Eccentric anomaly
280.26957°
Mean motion
3.82529 °/min
Orbital period
94.11 mins
BSTAR
0.0010158
Loading maneuver chart data...
Computing Atmospheric mass density...
Loading historical data...
Loading historical data...
Loading historical data...
Loading historical data...
Loading historical data...
Loading historical data...
Loading historical data...

Documentation

Showing up to 5 results
|